owner,sensor,date,latitude,longitude,vertical_datum,wind_speed,wind_to_direction,wind_speed_of_gust,qcFlag 
TCOON,ioos:station:TCOON:006:1,2013-09-01T00:00:00Z,27.8217,-97.2040,0.0,4.9,135.0,6.4,'11111222,11111222,11111222' 
TCOON,ioos:station:TCOON:006:1,2013-09-01T01:00:00Z,27.8217,-97.2040,0.0,4.8,127.0,6.2,'11111222,11111222,11111222' 
TCOON,ioos:station:TCOON:006:1,2013-09-01T02:00:00Z,27.8217,-97.2040,0.0,3.6,134.0,5.1,'11111222,11111222,11111222' 
TCOON,ioos:station:TCOON:006:1,2013-09-01T03:00:00Z,27.8217,-97.2040,0.0,4.3,149.0,5.7,'11111222,11111222,11111222' 
TCOON,ioos:station:TCOON:006:1,2013-09-01T04:00:00Z,27.8217,-97.2040,0.0,4.4,144.0,6.5,'11111222,11111222,11111222' 
TCOON,ioos:station:TCOON:006:1,2013-09-01T05:00:00Z,27.8217,-97.2040,0.0,6.4,157.0,8.3,'11111222,11111222,11111222' 
TCOON,ioos:station:TCOON:006:1,2013-09-01T06:00:00Z,27.8217,-97.2040,0.0,7.6,162.0,9.4,'11111222,11111222,11111222' 
TCOON,ioos:station:TCOON:006:1,2013-09-01T07:00:00Z,27.8217,-97.2040,0.0,7.8,167.0,9.8,'11111222,11111222,11111222' 
TCOON,ioos:station:TCOON:006:1,2013-09-01T08:00:00Z,27.8217,-97.2040,0.0,7.3,173.0,8.5,'11111222,11111222,11111222' 
TCOON,ioos:station:TCOON:006:1,2013-09-01T09:00:00Z,27.8217,-97.2040,0.0,7.1,186.0,8.2,'11111222,11111222,11111222' 
TCOON,ioos:station:TCOON:006:1,2013-09-01T10:00:00Z,27.8217,-97.2040,0.0,3.6,217.0,6.8,'11111222,11111222,11111222' 
TCOON,ioos:station:TCOON:006:1,2013-09-01T11:00:00Z,27.8217,-97.2040,0.0,3.2,203.0,3.9,'11111222,11111222,11111222' 
TCOON,ioos:station:TCOON:006:1,2013-09-01T12:00:00Z,27.8217,-97.2040,0.0,3.0,206.0,3.6,'11111222,11111222,11111222' 
TCOON,ioos:station:TCOON:006:1,2013-09-01T13:00:00Z,27.8217,-97.2040,0.0,2.4,227.0,3.0,'11111222,11111222,11111222' 
TCOON,ioos:station:TCOON:006:1,2013-09-01T14:00:00Z,27.8217,-97.2040,0.0,1.5,191.0,2.7,'11111222,11111222,11111222' 
TCOON,ioos:station:TCOON:006:1,2013-09-01T15:00:00Z,27.8217,-97.2040,0.0,2.5,181.0,3.5,'11111222,11111222,11111222' 
TCOON,ioos:station:TCOON:006:1,2013-09-01T16:00:00Z,27.8217,-97.2040,0.0,3.1,158.0,4.0,'11111222,11111222,11111222' 
TCOON,ioos:station:TCOON:006:1,2013-09-01T17:00:00Z,27.8217,-97.2040,0.0,4.3,158.0,5.4,'11111222,11111222,11111222' 
TCOON,ioos:station:TCOON:006:1,2013-09-01T18:00:00Z,27.8217,-97.2040,0.0,3.8,134.0,5.6,'11111222,11111222,11111222' 
TCOON,ioos:station:TCOON:006:1,2013-09-01T19:00:00Z,27.8217,-97.2040,0.0,5.6,130.0,6.9,'11111222,11111222,11111222' 
TCOON,ioos:station:TCOON:006:1,2013-09-01T20:00:00Z,27.8217,-97.2040,0.0,4.0,141.0,6.7,'11111222,11111222,11111222' 
TCOON,ioos:station:TCOON:006:1,2013-09-01T21:00:00Z,27.8217,-97.2040,0.0,6.3,130.0,8.2,'11111222,11111222,11111222' 
TCOON,ioos:station:TCOON:006:1,2013-09-01T22:00:00Z,27.8217,-97.2040,0.0,6.1,134.0,8.0,'11111222,11111222,11111222' 
TCOON,ioos:station:TCOON:006:1,2013-09-01T23:00:00Z,27.8217,-97.2040,0.0,6.6,128.0,8.0,'11111222,11111222,11111222' 
TCOON,ioos:station:TCOON:006:1,2013-09-02T00:00:00Z,27.8217,-97.2040,0.0,5.5,134.0,8.1,'11111222,11111222,11111222' 
TCOON,ioos:station:TCOON:006:1,2013-09-02T01:00:00Z,27.8217,-97.2040,0.0,5.3,136.0,8.0,'11111222,11111222,11111222' 
TCOON,ioos:station:TCOON:006:1,2013-09-02T02:00:00Z,27.8217,-97.2040,0.0,5.6,141.0,7.5,'11111222,11111222,11111222' 
TCOON,ioos:station:TCOON:006:1,2013-09-02T03:00:00Z,27.8217,-97.2040,0.0,6.3,150.0,7.0,'11111222,11111222,11111222' 
TCOON,ioos:station:TCOON:006:1,2013-09-02T04:00:00Z,27.8217,-97.2040,0.0,7.0,152.0,7.9,'11111222,11111222,11111222' 
TCOON,ioos:station:TCOON:006:1,2013-09-02T05:00:00Z,27.8217,-97.2040,0.0,6.8,158.0,8.0,'11111222,11111222,11111222' 
TCOON,ioos:station:TCOON:006:1,2013-09-02T06:00:00Z,27.8217,-97.2040,0.0,6.8,154.0,8.7,'11111222,11111222,11111222' 
TCOON,ioos:station:TCOON:006:1,2013-09-02T07:00:00Z,27.8217,-97.2040,0.0,6.4,165.0,8.9,'11111222,11111222,11111222' 
TCOON,ioos:station:TCOON:006:1,2013-09-02T08:00:00Z,27.8217,-97.2040,0.0,6.1,164.0,7.7,'11111222,11111222,11111222' 
TCOON,ioos:station:TCOON:006:1,2013-09-02T09:00:00Z,27.8217,-97.2040,0.0,6.8,177.0,8.0,'11111222,11111222,11111222' 
TCOON,ioos:station:TCOON:006:1,2013-09-02T10:00:00Z,27.8217,-97.2040,0.0,5.6,184.0,6.8,'11111222,11111222,11111222' 
TCOON,ioos:station:TCOON:006:1,2013-09-02T11:00:00Z,27.8217,-97.2040,0.0,4.4,190.0,5.4,'11111222,11111222,11111222' 
TCOON,ioos:station:TCOON:006:1,2013-09-02T12:00:00Z,27.8217,-97.2040,0.0,3.8,207.0,4.6,'11111222,11111222,11111222' 
TCOON,ioos:station:TCOON:006:1,2013-09-02T13:00:00Z,27.8217,-97.2040,0.0,3.5,196.0,4.6,'11111222,11111222,11111222' 
TCOON,ioos:station:TCOON:006:1,2013-09-02T14:00:00Z,27.8217,-97.2040,0.0,2.6,192.0,3.3,'11111222,11111222,11111222' 
TCOON,ioos:station:TCOON:006:1,2013-09-02T15:00:00Z,27.8217,-97.2040,0.0,3.5,151.0,5.3,'11111222,11111222,11111222' 
TCOON,ioos:station:TCOON:006:1,2013-09-02T16:00:00Z,27.8217,-97.2040,0.0,2.4,149.0,3.4,'11111222,11111222,11111222' 
TCOON,ioos:station:TCOON:006:1,2013-09-02T17:00:00Z,27.8217,-97.2040,0.0,3.2,136.0,5.1,'11111222,11111222,11111222' 
TCOON,ioos:station:TCOON:006:1,2013-09-02T18:00:00Z,27.8217,-97.2040,0.0,4.5,132.0,5.8,'11111222,11111222,11111222' 
TCOON,ioos:station:TCOON:006:1,2013-09-02T19:00:00Z,27.8217,-97.2040,0.0,5.0,137.0,6.7,'11111222,11111222,11111222' 
TCOON,ioos:station:TCOON:006:1,2013-09-02T20:00:00Z,27.8217,-97.2040,0.0,5.1,130.0,6.4,'11111222,11111222,11111222' 
TCOON,ioos:station:TCOON:006:1,2013-09-02T21:00:00Z,27.8217,-97.2040,0.0,4.8,124.0,6.3,'11111222,11111222,11111222' 
TCOON,ioos:station:TCOON:006:1,2013-09-02T22:00:00Z,27.8217,-97.2040,0.0,3.3,121.0,5.0,'11111222,11111222,11111222' 
TCOON,ioos:station:TCOON:006:1,2013-09-02T23:00:00Z,27.8217,-97.2040,0.0,6.4,147.0,8.3,'11111222,11111222,11111222' 
TCOON,ioos:station:TCOON:006:1,2013-09-03T00:00:00Z,27.8217,-97.2040,0.0,7.9,151.0,9.6,'11111222,11111222,11111222' 
TCOON,ioos:station:TCOON:006:1,2013-09-03T01:00:00Z,27.8217,-97.2040,0.0,5.6,147.0,8.2,'11111222,11111222,11111222' 
TCOON,ioos:station:TCOON:006:1,2013-09-03T02:00:00Z,27.8217,-97.2040,0.0,5.3,155.0,6.4,'11111222,11111222,11111222' 
TCOON,ioos:station:TCOON:006:1,2013-09-03T03:00:00Z,27.8217,-97.2040,0.0,5.1,164.0,6.0,'11111222,11111222,11111222' 
TCOON,ioos:station:TCOON:006:1,2013-09-03T04:00:00Z,27.8217,-97.2040,0.0,4.4,156.0,5.4,'11111222,11111222,11111222' 
TCOON,ioos:station:TCOON:006:1,2013-09-03T05:00:00Z,27.8217,-97.2040,0.0,4.6,167.0,5.2,'11111222,11111222,11111222' 
TCOON,ioos:station:TCOON:006:1,2013-09-03T06:00:00Z,27.8217,-97.2040,0.0,4.4,166.0,6.0,'11111222,11111222,11111222' 
TCOON,ioos:station:TCOON:006:1,2013-09-03T07:00:00Z,27.8217,-97.2040,0.0,5.0,165.0,5.7,'11111222,11111222,11111222' 
TCOON,ioos:station:TCOON:006:1,2013-09-03T08:00:00Z,27.8217,-97.2040,0.0,3.4,184.0,4.5,'11111222,11111222,11111222' 
TCOON,ioos:station:TCOON:006:1,2013-09-03T09:00:00Z,27.8217,-97.2040,0.0,2.9,221.0,3.5,'11111222,11111222,11111222' 
TCOON,ioos:station:TCOON:006:1,2013-09-03T10:00:00Z,27.8217,-97.2040,0.0,2.9,225.0,3.5,'11111222,11111222,11111222' 
TCOON,ioos:station:TCOON:006:1,2013-09-03T11:00:00Z,27.8217,-97.2040,0.0,2.2,250.0,2.7,'11111222,11111222,11111222' 
TCOON,ioos:station:TCOON:006:1,2013-09-03T12:00:00Z,27.8217,-97.2040,0.0,1.7,327.0,2.1,'11111222,11111222,11111222' 
TCOON,ioos:station:TCOON:006:1,2013-09-03T13:00:00Z,27.8217,-97.2040,0.0,1.0,333.0,1.9,'11111222,11111222,11111222' 
TCOON,ioos:station:TCOON:006:1,2013-09-03T14:00:00Z,27.8217,-97.2040,0.0,1.6,223.0,2.4,'11111222,11111222,11111222' 
TCOON,ioos:station:TCOON:006:1,2013-09-03T15:00:00Z,27.8217,-97.2040,0.0,1.3,226.0,2.1,'11111222,11111222,11111222' 
TCOON,ioos:station:TCOON:006:1,2013-09-03T16:00:00Z,27.8217,-97.2040,0.0,1.4,271.0,2.3,'11111222,11111222,11111222' 
TCOON,ioos:station:TCOON:006:1,2013-09-03T17:00:00Z,27.8217,-97.2040,0.0,2.4,111.0,3.4,'11111222,11111222,11111222' 
TCOON,ioos:station:TCOON:006:1,2013-09-03T18:00:00Z,27.8217,-97.2040,0.0,3.0,94.0,4.7,'11111222,11111222,11111222' 
TCOON,ioos:station:TCOON:006:1,2013-09-03T19:00:00Z,27.8217,-97.2040,0.0,4.1,110.0,5.3,'11111222,11111222,11111222' 
TCOON,ioos:station:TCOON:006:1,2013-09-03T20:00:00Z,27.8217,-97.2040,0.0,3.3,117.0,4.5,'11111222,11111222,11111222' 
TCOON,ioos:station:TCOON:006:1,2013-09-03T21:00:00Z,27.8217,-97.2040,0.0,2.6,140.0,4.6,'1111122,1111122,1111122' 
TCOON,ioos:station:TCOON:006:1,2013-09-03T22:00:00Z,27.8217,-97.2040,0.0,2.1,130.0,4.6,'1111122,1111122,1111122' 
TCOON,ioos:station:TCOON:006:1,2013-09-03T23:00:00Z,27.8217,-97.2040,0.0,1.5,130.0,3.6,'1111122,1111122,1111122' 
TCOON,ioos:station:TCOON:006:1,2013-09-04T00:00:00Z,27.8217,-97.2040,0.0,1.5,120.0,3.6,'1111122,1111122,1111122' 
TCOON,ioos:station:TCOON:006:1,2013-09-04T01:00:00Z,27.8217,-97.2040,0.0,1.0,150.0,4.1,'1111122,1111122,1111122' 
TCOON,ioos:station:TCOON:006:1,2013-09-04T02:00:00Z,27.8217,-97.2040,0.0,2.6,160.0,5.1,'1111122,1111122,1111122' 
TCOON,ioos:station:TCOON:006:1,2013-09-04T03:00:00Z,27.8217,-97.2040,0.0,3.6,140.0,5.1,'1111122,1111122,1111122' 
TCOON,ioos:station:TCOON:006:1,2013-09-04T04:00:00Z,27.8217,-97.2040,0.0,4.6,160.0,5.7,'1111122,1111122,1111122' 
TCOON,ioos:station:TCOON:006:1,2013-09-04T05:00:00Z,27.8217,-97.2040,0.0,4.1,160.0,5.7,'1111122,1111122,1111122' 
TCOON,ioos:station:TCOON:006:1,2013-09-04T06:00:00Z,27.8217,-97.2040,0.0,4.6,170.0,5.7,'1111122,1111122,1111122' 
TCOON,ioos:station:TCOON:006:1,2013-09-04T07:00:00Z,27.8217,-97.2040,0.0,4.1,180.0,5.7,'1111122,1111122,1111122' 
TCOON,ioos:station:TCOON:006:1,2013-09-04T08:00:00Z,27.8217,-97.2040,0.0,4.1,180.0,5.1,'1111122,1111122,1111122' 
TCOON,ioos:station:TCOON:006:1,2013-09-04T09:00:00Z,27.8217,-97.2040,0.0,3.1,220.0,4.1,'1111122,1111122,1111122' 
TCOON,ioos:station:TCOON:006:1,2013-09-04T10:00:00Z,27.8217,-97.2040,0.0,4.1,230.0,4.6,'1111122,1111122,1111122' 
TCOON,ioos:station:TCOON:006:1,2013-09-04T11:00:00Z,27.8217,-97.2040,0.0,1.5,280.0,2.6,'1111122,1111122,1111122' 
TCOON,ioos:station:TCOON:006:1,2013-09-04T12:00:00Z,27.8217,-97.2040,0.0,2.1,330.0,2.1,'1111122,1111122,1111122' 
TCOON,ioos:station:TCOON:006:1,2013-09-04T13:00:00Z,27.8217,-97.2040,0.0,2.1,330.0,3.1,'1111122,1111122,1111122' 
TCOON,ioos:station:TCOON:006:1,2013-09-04T14:00:00Z,27.8217,-97.2040,0.0,2.1,320.0,3.6,'1111122,1111122,1111122' 
TCOON,ioos:station:TCOON:006:1,2013-09-04T15:00:00Z,27.8217,-97.2040,0.0,1.0,60.0,2.6,'1111122,1111122,1111122' 
TCOON,ioos:station:TCOON:006:1,2013-09-04T16:00:00Z,27.8217,-97.2040,0.0,1.5,170.0,2.6,'1111122,1111122,1111122' 
TCOON,ioos:station:TCOON:006:1,2013-09-04T17:00:00Z,27.8217,-97.2040,0.0,3.1,90.0,4.1,'1111122,1111122,1111122' 
TCOON,ioos:station:TCOON:006:1,2013-09-04T18:00:00Z,27.8217,-97.2040,0.0,2.6,90.0,4.1,'1111122,1111122,1111122' 
TCOON,ioos:station:TCOON:006:1,2013-09-04T19:00:00Z,27.8217,-97.2040,0.0,4.1,110.0,5.7,'1111122,1111122,1111122' 
TCOON,ioos:station:TCOON:006:1,2013-09-04T20:00:00Z,27.8217,-97.2040,0.0,4.6,110.0,6.7,'1111122,1111122,1111122' 
TCOON,ioos:station:TCOON:006:1,2013-09-04T21:00:00Z,27.8217,-97.2040,0.0,4.1,100.0,6.2,'1111122,1111122,1111122' 
TCOON,ioos:station:TCOON:006:1,2013-09-04T22:00:00Z,27.8217,-97.2040,0.0,3.6,100.0,6.2,'1111122,1111122,1111122' 
TCOON,ioos:station:TCOON:006:1,2013-09-04T23:00:00Z,27.8217,-97.2040,0.0,4.6,100.0,6.2,'1111122,1111122,1111122' 
TCOON,ioos:station:TCOON:006:1,2013-09-05T00:00:00Z,27.8217,-97.2040,0.0,4.1,120.0,5.1,'1111122,1111122,1111122' 
TCOON,ioos:station:TCOON:006:1,2013-09-05T01:00:00Z,27.8217,-97.2040,0.0,3.6,100.0,6.2,'1111122,1111122,1111122' 
TCOON,ioos:station:TCOON:006:1,2013-09-05T02:00:00Z,27.8217,-97.2040,0.0,4.1,110.0,6.2,'1111122,1111122,1111122' 
TCOON,ioos:station:TCOON:006:1,2013-09-05T03:00:00Z,27.8217,-97.2040,0.0,3.1,100.0,5.7,'1111122,1111122,1111122' 
TCOON,ioos:station:TCOON:006:1,2013-09-05T04:00:00Z,27.8217,-97.2040,0.0,3.1,100.0,5.1,'1111122,1111122,1111122' 
TCOON,ioos:station:TCOON:006:1,2013-09-05T05:00:00Z,27.8217,-97.2040,0.0,2.6,100.0,4.1,'1111122,1111122,1111122' 
TCOON,ioos:station:TCOON:006:1,2013-09-05T06:00:00Z,27.8217,-97.2040,0.0,3.1,110.0,4.6,'1111122,1111122,1111122' 
TCOON,ioos:station:TCOON:006:1,2013-09-05T07:00:00Z,27.8217,-97.2040,0.0,3.1,100.0,4.6,'1111122,1111122,1111122' 
TCOON,ioos:station:TCOON:006:1,2013-09-05T08:00:00Z,27.8217,-97.2040,0.0,2.6,90.0,4.6,'1111122,1111122,1111122' 
TCOON,ioos:station:TCOON:006:1,2013-09-05T09:00:00Z,27.8217,-97.2040,0.0,3.1,70.0,4.1,'1111122,1111122,1111122' 
TCOON,ioos:station:TCOON:006:1,2013-09-05T10:00:00Z,27.8217,-97.2040,0.0,2.6,70.0,4.6,'1111122,1111122,1111122' 
TCOON,ioos:station:TCOON:006:1,2013-09-05T11:00:00Z,27.8217,-97.2040,0.0,1.5,50.0,2.6,'1111122,1111122,1111122' 
TCOON,ioos:station:TCOON:006:1,2013-09-05T12:00:00Z,27.8217,-97.2040,0.0,2.1,60.0,3.6,'1111122,1111122,1111122' 
TCOON,ioos:station:TCOON:006:1,2013-09-05T13:00:00Z,27.8217,-97.2040,0.0,3.1,50.0,4.1,'1111122,1111122,1111122' 
TCOON,ioos:station:TCOON:006:1,2013-09-05T14:00:00Z,27.8217,-97.2040,0.0,2.1,50.0,4.1,'1111122,1111122,1111122' 
TCOON,ioos:station:TCOON:006:1,2013-09-05T15:00:00Z,27.8217,-97.2040,0.0,2.6,60.0,5.1,'1111122,1111122,1111122' 
TCOON,ioos:station:TCOON:006:1,2013-09-05T16:00:00Z,27.8217,-97.2040,0.0,3.6,100.0,5.7,'1111122,1111122,1111122' 
TCOON,ioos:station:TCOON:006:1,2013-09-05T17:00:00Z,27.8217,-97.2040,0.0,3.6,70.0,6.2,'1111122,1111122,1111122' 
TCOON,ioos:station:TCOON:006:1,2013-09-05T18:00:00Z,27.8217,-97.2040,0.0,5.1,90.0,6.7,'1111122,1111122,1111122' 
TCOON,ioos:station:TCOON:006:1,2013-09-05T19:00:00Z,27.8217,-97.2040,0.0,4.1,80.0,6.7,'1111122,1111122,1111122' 
TCOON,ioos:station:TCOON:006:1,2013-09-05T20:00:00Z,27.8217,-97.2040,0.0,4.1,90.0,7.2,'1111122,1111122,1111122' 
TCOON,ioos:station:TCOON:006:1,2013-09-05T21:00:00Z,27.8217,-97.2040,0.0,4.6,100.0,7.7,'1111122,1111122,1111122' 
TCOON,ioos:station:TCOON:006:1,2013-09-05T22:00:00Z,27.8217,-97.2040,0.0,4.0,88.0,6.2,'11111222,11111222,11111222' 
TCOON,ioos:station:TCOON:006:1,2013-09-05T23:00:00Z,27.8217,-97.2040,0.0,4.1,100.0,5.7,'1111122,1111122,1111122' 
TCOON,ioos:station:TCOON:006:1,2013-09-06T00:00:00Z,27.8217,-97.2040,0.0,3.7,103.0,5.5,'11111222,11111222,11111222' 
TCOON,ioos:station:TCOON:006:1,2013-09-06T01:00:00Z,27.8217,-97.2040,0.0,3.6,100.0,5.7,'1111122,1111122,1111122' 
TCOON,ioos:station:TCOON:006:1,2013-09-06T02:00:00Z,27.8217,-97.2040,0.0,3.1,90.0,5.7,'1111122,1111122,1111122' 
TCOON,ioos:station:TCOON:006:1,2013-09-06T03:00:00Z,27.8217,-97.2040,0.0,3.1,100.0,4.1,'1111122,1111122,1111122' 
TCOON,ioos:station:TCOON:006:1,2013-09-06T04:00:00Z,27.8217,-97.2040,0.0,1.8,123.0,4.7,'11111222,11111222,11111222' 
TCOON,ioos:station:TCOON:006:1,2013-09-06T05:00:00Z,27.8217,-97.2040,0.0,2.1,90.0,3.1,'1111122,1111122,1111122' 
TCOON,ioos:station:TCOON:006:1,2013-09-06T06:00:00Z,27.8217,-97.2040,0.0,2.1,90.0,3.1,'1111122,1111122,1111122' 
TCOON,ioos:station:TCOON:006:1,2013-09-06T07:00:00Z,27.8217,-97.2040,0.0,1.0,70.0,2.1,'1111122,1111122,1111122' 
TCOON,ioos:station:TCOON:006:1,2013-09-06T08:00:00Z,27.8217,-97.2040,0.0,3.1,110.0,5.7,'1111122,1111122,1111122' 
TCOON,ioos:station:TCOON:006:1,2013-09-06T09:00:00Z,27.8217,-97.2040,0.0,1.0,90.0,1.5,'1111122,1111122,1111122' 
TCOON,ioos:station:TCOON:006:1,2013-09-06T10:00:00Z,27.8217,-97.2040,0.0,0.5,20.0,0.5,'1111122,1111122,1111122' 
TCOON,ioos:station:TCOON:006:1,2013-09-06T11:00:00Z,27.8217,-97.2040,0.0,1.0,340.0,2.1,'1111122,1111122,1111122' 
TCOON,ioos:station:TCOON:006:1,2013-09-06T12:00:00Z,27.8217,-97.2040,0.0,2.1,340.0,2.6,'1111122,1111122,1111122' 
TCOON,ioos:station:TCOON:006:1,2013-09-06T13:00:00Z,27.8217,-97.2040,0.0,1.0,350.0,2.1,'1111122,1111122,1111122' 
TCOON,ioos:station:TCOON:006:1,2013-09-06T14:00:00Z,27.8217,-97.2040,0.0,1.5,10.0,4.1,'1111122,1111122,1111122' 
TCOON,ioos:station:TCOON:006:1,2013-09-06T15:00:00Z,27.8217,-97.2040,0.0,2.1,350.0,3.6,'1111122,1111122,1111122' 
TCOON,ioos:station:TCOON:006:1,2013-09-06T16:00:00Z,27.8217,-97.2040,0.0,2.6,40.0,3.6,'1111122,1111122,1111122' 
TCOON,ioos:station:TCOON:006:1,2013-09-06T17:00:00Z,27.8217,-97.2040,0.0,3.1,60.0,4.6,'1111122,1111122,1111122' 
TCOON,ioos:station:TCOON:006:1,2013-09-06T18:00:00Z,27.8217,-97.2040,0.0,4.6,60.0,6.7,'1111122,1111122,1111122' 
TCOON,ioos:station:TCOON:006:1,2013-09-06T19:00:00Z,27.8217,-97.2040,0.0,3.6,70.0,6.7,'1111122,1111122,1111122' 
TCOON,ioos:station:TCOON:006:1,2013-09-06T20:00:00Z,27.8217,-97.2040,0.0,4.6,80.0,5.7,'1111122,1111122,1111122' 
TCOON,ioos:station:TCOON:006:1,2013-09-06T21:00:00Z,27.8217,-97.2040,0.0,3.6,90.0,6.2,'1111122,1111122,1111122' 
TCOON,ioos:station:TCOON:006:1,2013-09-06T22:00:00Z,27.8217,-97.2040,0.0,3.1,90.0,5.1,'1111122,1111122,1111122' 
TCOON,ioos:station:TCOON:006:1,2013-09-06T23:00:00Z,27.8217,-97.2040,0.0,3.6,110.0,5.1,'1111122,1111122,1111122' 
TCOON,ioos:station:TCOON:006:1,2013-09-07T00:00:00Z,27.8217,-97.2040,0.0,3.1,99.0,4.5,'11111222,11111222,11111222' 
TCOON,ioos:station:TCOON:006:1,2013-09-07T01:00:00Z,27.8217,-97.2040,0.0,2.6,80.0,3.6,'1111122,1111122,1111122' 
TCOON,ioos:station:TCOON:006:1,2013-09-07T02:00:00Z,27.8217,-97.2040,0.0,2.6,89.0,4.4,'11111222,11111222,11111222' 
TCOON,ioos:station:TCOON:006:1,2013-09-07T03:00:00Z,27.8217,-97.2040,0.0,3.1,90.0,4.6,'1111122,1111122,1111122' 
TCOON,ioos:station:TCOON:006:1,2013-09-07T04:00:00Z,27.8217,-97.2040,0.0,3.1,120.0,4.1,'1111122,1111122,1111122' 
TCOON,ioos:station:TCOON:006:1,2013-09-07T05:00:00Z,27.8217,-97.2040,0.0,2.6,100.0,4.1,'1111122,1111122,1111122' 
TCOON,ioos:station:TCOON:006:1,2013-09-07T06:00:00Z,27.8217,-97.2040,0.0,2.1,102.0,3.6,'11111222,11111222,11111222' 
TCOON,ioos:station:TCOON:006:1,2013-09-07T07:00:00Z,27.8217,-97.2040,0.0,2.6,140.0,3.6,'1111122,1111122,1111122' 
TCOON,ioos:station:TCOON:006:1,2013-09-07T08:00:00Z,27.8217,-97.2040,0.0,3.1,130.0,3.6,'1111122,1111122,1111122' 
TCOON,ioos:station:TCOON:006:1,2013-09-07T09:00:00Z,27.8217,-97.2040,0.0,3.6,180.0,5.7,'1111122,1111122,1111122' 
TCOON,ioos:station:TCOON:006:1,2013-09-07T10:00:00Z,27.8217,-97.2040,0.0,4.1,250.0,4.6,'1111122,1111122,1111122' 
TCOON,ioos:station:TCOON:006:1,2013-09-07T11:00:00Z,27.8217,-97.2040,0.0,2.1,340.0,4.1,'1111122,1111122,1111122' 
TCOON,ioos:station:TCOON:006:1,2013-09-07T12:00:00Z,27.8217,-97.2040,0.0,2.6,260.0,3.6,'1111122,1111122,1111122' 
TCOON,ioos:station:TCOON:006:1,2013-09-07T13:00:00Z,27.8217,-97.2040,0.0,2.6,30.0,5.1,'1111122,1111122,1111122' 
TCOON,ioos:station:TCOON:006:1,2013-09-07T14:00:00Z,27.8217,-97.2040,0.0,1.0,350.0,1.5,'1111122,1111122,1111122' 
TCOON,ioos:station:TCOON:006:1,2013-09-07T15:00:00Z,27.8217,-97.2040,0.0,2.1,50.0,2.6,'1111122,1111122,1111122' 
TCOON,ioos:station:TCOON:006:1,2013-09-07T16:00:00Z,27.8217,-97.2040,0.0,2.6,30.0,3.6,'1111122,1111122,1111122' 
TCOON,ioos:station:TCOON:006:1,2013-09-07T17:00:00Z,27.8217,-97.2040,0.0,2.6,80.0,3.1,'1111122,1111122,1111122' 
TCOON,ioos:station:TCOON:006:1,2013-09-07T18:00:00Z,27.8217,-97.2040,0.0,2.1,110.0,4.1,'1111122,1111122,1111122' 
TCOON,ioos:station:TCOON:006:1,2013-09-07T19:00:00Z,27.8217,-97.2040,0.0,4.1,130.0,5.1,'1111122,1111122,1111122' 
TCOON,ioos:station:TCOON:006:1,2013-09-07T20:00:00Z,27.8217,-97.2040,0.0,4.1,90.0,6.2,'1111122,1111122,1111122' 
TCOON,ioos:station:TCOON:006:1,2013-09-07T21:00:00Z,27.8217,-97.2040,0.0,4.6,100.0,6.2,'1111122,1111122,1111122' 
TCOON,ioos:station:TCOON:006:1,2013-09-07T22:00:00Z,27.8217,-97.2040,0.0,5.1,120.0,7.7,'1111122,1111122,1111122' 
TCOON,ioos:station:TCOON:006:1,2013-09-07T23:00:00Z,27.8217,-97.2040,0.0,3.6,120.0,6.2,'1111122,1111122,1111122' 
TCOON,ioos:station:TCOON:006:1,2013-09-08T00:00:00Z,27.8217,-97.2040,0.0,4.6,120.0,5.7,'1111122,1111122,1111122' 
TCOON,ioos:station:TCOON:006:1,2013-09-08T01:00:00Z,27.8217,-97.2040,0.0,4.6,90.0,6.2,'1111122,1111122,1111122' 
TCOON,ioos:station:TCOON:006:1,2013-09-08T02:00:00Z,27.8217,-97.2040,0.0,4.1,120.0,5.7,'1111122,1111122,1111122' 
TCOON,ioos:station:TCOON:006:1,2013-09-08T03:00:00Z,27.8217,-97.2040,0.0,4.1,120.0,5.7,'1111122,1111122,1111122' 
TCOON,ioos:station:TCOON:006:1,2013-09-08T04:00:00Z,27.8217,-97.2040,0.0,4.1,100.0,7.2,'1111122,1111122,1111122' 
TCOON,ioos:station:TCOON:006:1,2013-09-08T05:00:00Z,27.8217,-97.2040,0.0,4.6,120.0,6.2,'1111122,1111122,1111122' 
TCOON,ioos:station:TCOON:006:1,2013-09-08T06:00:00Z,27.8217,-97.2040,0.0,3.6,130.0,5.7,'1111122,1111122,1111122' 
TCOON,ioos:station:TCOON:006:1,2013-09-08T07:00:00Z,27.8217,-97.2040,0.0,4.1,140.0,5.7,'1111122,1111122,1111122' 
TCOON,ioos:station:TCOON:006:1,2013-09-08T08:00:00Z,27.8217,-97.2040,0.0,2.6,150.0,4.1,'1111122,1111122,1111122' 
TCOON,ioos:station:TCOON:006:1,2013-09-08T09:00:00Z,27.8217,-97.2040,0.0,2.6,180.0,3.6,'1111122,1111122,1111122' 
TCOON,ioos:station:TCOON:006:1,2013-09-08T10:00:00Z,27.8217,-97.2040,0.0,2.1,170.0,2.6,'1111122,1111122,1111122' 
TCOON,ioos:station:TCOON:006:1,2013-09-08T11:00:00Z,27.8217,-97.2040,0.0,2.1,140.0,2.6,'1111122,1111122,1111122' 
TCOON,ioos:station:TCOON:006:1,2013-09-08T12:00:00Z,27.8217,-97.2040,0.0,1.5,350.0,2.6,'1111122,1111122,1111122' 
TCOON,ioos:station:TCOON:006:1,2013-09-08T13:00:00Z,27.8217,-97.2040,0.0,1.0,40.0,2.1,'1111122,1111122,1111122' 
TCOON,ioos:station:TCOON:006:1,2013-09-08T14:00:00Z,27.8217,-97.2040,0.0,1.0,20.0,3.1,'1111122,1111122,1111122' 
TCOON,ioos:station:TCOON:006:1,2013-09-08T15:00:00Z,27.8217,-97.2040,0.0,2.6,40.0,4.6,'1111122,1111122,1111122' 
TCOON,ioos:station:TCOON:006:1,2013-09-08T16:00:00Z,27.8217,-97.2040,0.0,2.6,10.0,5.1,'1111122,1111122,1111122' 
TCOON,ioos:station:TCOON:006:1,2013-09-08T17:00:00Z,27.8217,-97.2040,0.0,1.0,30.0,2.6,'1111122,1111122,1111122' 
TCOON,ioos:station:TCOON:006:1,2013-09-08T18:00:00Z,27.8217,-97.2040,0.0,1.0,20.0,3.1,'1111122,1111122,1111122' 
TCOON,ioos:station:TCOON:006:1,2013-09-08T19:00:00Z,27.8217,-97.2040,0.0,1.5,10.0,3.1,'1111122,1111122,1111122' 
TCOON,ioos:station:TCOON:006:1,2013-09-08T20:00:00Z,27.8217,-97.2040,0.0,2.6,40.0,4.1,'1111122,1111122,1111122' 
TCOON,ioos:station:TCOON:006:1,2013-09-08T21:00:00Z,27.8217,-97.2040,0.0,3.1,70.0,4.6,'1111122,1111122,1111122' 
TCOON,ioos:station:TCOON:006:1,2013-09-08T22:00:00Z,27.8217,-97.2040,0.0,4.1,90.0,6.7,'1111122,1111122,1111122' 
TCOON,ioos:station:TCOON:006:1,2013-09-08T23:00:00Z,27.8217,-97.2040,0.0,4.6,80.0,7.7,'1111122,1111122,1111122' 
TCOON,ioos:station:TCOON:006:1,2013-09-09T00:00:00Z,27.8217,-97.2040,0.0,4.6,90.0,6.7,'1111122,1111122,1111122' 
TCOON,ioos:station:TCOON:006:1,2013-09-09T01:00:00Z,27.8217,-97.2040,0.0,4.6,90.0,6.7,'1111122,1111122,1111122' 
TCOON,ioos:station:TCOON:006:1,2013-09-09T02:00:00Z,27.8217,-97.2040,0.0,4.6,110.0,6.7,'1111122,1111122,1111122' 
TCOON,ioos:station:TCOON:006:1,2013-09-09T03:00:00Z,27.8217,-97.2040,0.0,3.1,100.0,5.1,'1111122,1111122,1111122' 
TCOON,ioos:station:TCOON:006:1,2013-09-09T04:00:00Z,27.8217,-97.2040,0.0,3.6,110.0,5.1,'1111122,1111122,1111122' 
TCOON,ioos:station:TCOON:006:1,2013-09-09T05:00:00Z,27.8217,-97.2040,0.0,2.1,90.0,5.1,'1111122,1111122,1111122' 
TCOON,ioos:station:TCOON:006:1,2013-09-09T06:00:00Z,27.8217,-97.2040,0.0,2.6,80.0,5.1,'1111122,1111122,1111122' 
TCOON,ioos:station:TCOON:006:1,2013-09-09T07:00:00Z,27.8217,-97.2040,0.0,5.7,110.0,7.7,'1111122,1111122,1111122' 
TCOON,ioos:station:TCOON:006:1,2013-09-09T08:00:00Z,27.8217,-97.2040,0.0,3.6,130.0,6.2,'1111122,1111122,1111122' 
TCOON,ioos:station:TCOON:006:1,2013-09-09T09:00:00Z,27.8217,-97.2040,0.0,3.6,110.0,4.6,'1111122,1111122,1111122' 
TCOON,ioos:station:TCOON:006:1,2013-09-09T10:00:00Z,27.8217,-97.2040,0.0,5.7,110.0,8.2,'1111122,1111122,1111122' 
TCOON,ioos:station:TCOON:006:1,2013-09-09T11:00:00Z,27.8217,-97.2040,0.0,5.1,110.0,8.2,'1111122,1111122,1111122' 
TCOON,ioos:station:TCOON:006:1,2013-09-09T12:00:00Z,27.8217,-97.2040,0.0,4.1,100.0,7.2,'1111122,1111122,1111122' 
TCOON,ioos:station:TCOON:006:1,2013-09-09T13:00:00Z,27.8217,-97.2040,0.0,5.1,130.0,8.8,'1111122,1111122,1111122' 
TCOON,ioos:station:TCOON:006:1,2013-09-09T14:00:00Z,27.8217,-97.2040,0.0,6.2,120.0,8.8,'1111122,1111122,1111122' 
TCOON,ioos:station:TCOON:006:1,2013-09-09T15:00:00Z,27.8217,-97.2040,0.0,4.6,120.0,6.7,'1111122,1111122,1111122' 